Regional Weather Roundup
Issued by NWS Northern Indiana

Home | Current Version | Previous Version | Graphics & Text | Print | Product List | Glossary On
Versions: 1 2 3 4 5 6 7 8 9 10 11 12 13 14 15 16 17 18 19 20 21 22 23 24 25 26 27 28 29 30 31 32 33 34 35 36 37 38 39 40 41 42 43 44 45 46 47 48 49 50
000
ASUS43 KIWX 270100
RWRIWX

KIWX WEATHER ROUNDUP
NATIONAL WEATHER SERVICE NORTHERN INDIANA
900 PM EDT SUN MAR 26 2017

NOTE: "FAIR" INDICATES FEW OR NO CLOUDS BELOW 12,000 FEET WITH NO
SIGNIFICANT WEATHER AND/OR OBSTRUCTIONS TO VISIBILITY.

* THESE STATIONS ARE NOT UNDER NWS QUALITY CONTROL. THEY ALSO MAY NOT
  REPORT WEATHER SUCH AS PRECIPITATION OR FOG.

INZ001>027-270200-
NORTHERN INDIANA

CITY           SKY/WX    TMP DP  RH WIND       PRES   REMARKS
GARY*          CLOUDY    57  50  77 SW14      29.87R
SOUTH BEND     MOCLDY    50  32  50 W3        29.87R
GOSHEN         LGT RAIN  55  52  89 S3        29.87R
MONTICELLO*    CLOUDY    56  51  84 SW8       29.89R
ANGOLA*        MOCLDY    52  50  93 S6        29.88R
FORT WAYNE     CLOUDY    54  52  93 S9        29.89R

$$
INZ028>050-270200-
CENTRAL INDIANA

CITY           SKY/WX    TMP DP  RH WIND       PRES   REMARKS
LAFAYETTE      CLOUDY    57  50  77 W16G23    29.90R
KOKOMO*        PTCLDY    55  51  86 W9        29.91R
MUNCIE*        CLOUDY    58  53  84 W7        29.90R
INDIANAPOLIS   CLOUDY    57  49  74 SW14      29.92R

$$
MIZ043>046-050>051-056>058-064>065-071>073-077>080-270200-
SOUTHWEST LOWER MICHIGAN

CITY           SKY/WX    TMP DP  RH WIND       PRES   REMARKS
BATTLE CREEK   CLOUDY    53  52  96 S5        29.87R
BENTON HARBOR  CLOUDY    56  53  90 SW5       29.86R
COLDWATER*     CLOUDY    55  55 100 SE6       29.87R FOG
HILLSDALE*     LGT RAIN  52  50  93 S7        29.88R
HOLLAND        CLOUDY    54  53  97 S3        29.85R
GRAND RAPIDS   LGT RAIN  52  52 100 S5        29.85R FOG
KALAMAZOO      CLOUDY    54  50  86 S5        29.87R
STURGIS*       LGT RAIN  55  54  95 CALM      29.86R
THREE RIVERS*  LGT RAIN  53  52  99 CALM      29.87R

$$
OHZ001>008-015>018-024>025-270200-
NORTHWEST OHIO

CITY           SKY/WX    TMP DP  RH WIND       PRES   REMARKS
DEFIANCE       LGT RAIN  53  51  93 S6        29.90R
FINDLAY        MOCLDY    55  51  86 S6        29.90S
TOLEDO EXPRESS LGT RAIN  52  52 100 E3        29.89F FOG
TOLEDO METCALF RAIN      53  52  96 W8        29.92R FOG
LIMA           CLOUDY    54  53  97 S7        29.91R

$$
AND FOR LAKE MICHIGAN COASTAL AND OPEN LAKE BUOY OBSERVATIONS

STATION/POSITION TEMP    WIND        PRES    VSBY  WAVE
                 AIR SEA DIR/SP/G                  HT/PER
                 (F)     (DEG/KT/KT) (MB)    (MI)  (FT/S)
CALUMET HARBOR    55     210/  7/ 12 1010.5R
MICHIGAN CITY     52     220/ 11/ 12   N/A
BURNS HARBOR      54     240/  8/ 11 1011.9R

$$
&&



USA.gov is the U.S. government's official web portal to all federal, state and local government web resources and services.